Regional Weather Roundup
Issued by NWS

Home | Current Version | Previous Version | Graphics & Text | Print | Product List | Glossary On
Versions: 1 2 3 4 5 6 7 8 9 10 11 12 13 14 15 16 17 18 19 20 21 22 23 24 25 26 27 28 29 30 31 32 33 34 35 36 37 38 39 40 41 42 43 44 45 46 47 48 49 50
000
ASUS43 KDTX 260501
RWRMI
MICHIGAN HOURLY REGIONAL WEATHER ROUNDUP
NATIONAL WEATHER SERVICE DETROIT/PONTIAC MI
100 AM EDT SUN MAR 26 2017

NOTE: "FAIR" INDICATES FEW OR NO CLOUDS BELOW 12,000 FEET WITH NO
SIGNIFICANT WEATHER AND/OR OBSTRUCTION TO VISIBILITY.

MIZ047>049-052>055-059>063-066>070-074>076-081>083-260600-
SOUTHEAST LOWER MICHIGAN

CITY           SKY/WX    TMP DP  RH WIND       PRES   REMARKS
ADRIAN         CLOUDY    39  36  89 E14       30.10F WCI  31
ALMA           LGT RAIN  37  37 100 NE13      30.15F WCI  29
ANN ARBOR      CLOUDY    40  36  86 E12       30.12F WCI  33
BAD AXE        CLOUDY    36  33  88 E9        30.20F WCI  29
CARO           CLOUDY    37  34  90 E7        30.17F WCI  31
DETROIT CITY   CLOUDY    39  36  89 E12       30.16F WCI  32
DETROIT        CLOUDY    41  36  82 E10G20    30.15F
FLINT          CLOUDY    39  36  89 E10       30.14F WCI  32
GROSSE ILE     CLOUDY    39  36  87 E10       30.13F WCI  32
HILLSDALE      CLOUDY    37  36  93 E15G21    30.06F WCI  28
HOWELL         CLOUDY    40  37  89 E8        30.11F WCI  34

CITY           SKY/WX    TMP DP  RH WIND       PRES   REMARKS
JACKSON        CLOUDY    41  37  86 E18       30.08F
LAMBERTVILLE   CLOUDY    38  35  89 E13G23    30.11F WCI  31
LANSING        CLOUDY    41  38  89 E9        30.11F
LAPEER         CLOUDY    37  35  94 E6        30.17R WCI  32
MASON          CLOUDY    41  39  93 E6        30.10F
MONROE         PTCLDY    39  37  92 E9        30.12F WCI  33
MT. CLEMENS    CLOUDY    38  38  99 E7        30.15F WCI  33
PONTIAC        CLOUDY    38  35  89 E10       30.13F WCI  31
PORT HOPE        N/A     35  33  92 E9        30.20F WCI  28
TRI CITIES     LGT RAIN  38  36  92 E14       30.18F WCI  30
MIDLAND        RAIN      37  35  94 NE5       30.20R WCI  33
TROY           CLOUDY    39  35  85 E6        30.17F
SAGINAW HB     CLOUDY    37  34  87 E10       30.17S WCI  30
$$
MIZ043>046-050>051-056>058-064>065-071>073-077>080-260600-
SOUTHWEST LOWER MICHIGAN

CITY           SKY/WX    TMP DP  RH WIND       PRES   REMARKS
BATTLE CREEK   LGT RAIN  43  41  93 E6        30.08F
BENTON HARBOR  LGT RAIN  48  45  89 E13       30.00F
BIG RAPIDS     LGT SNOW  36  34  92 E14       30.12F WCI  27
COLDWATER      CLOUDY    44  41  89 CALM      30.09R
FREMONT        LGT RAIN  38  37  97 E13G20    30.06F WCI  30
HOLLAND        LGT RAIN  45  42  89 E20G31    30.04F
GRAND RAPIDS   LGT RAIN  41 N/A N/A E16       30.08F
IONIA          CLOUDY    39  38  97 NE7       30.11S FOG     WCI  34
KALAMAZOO      CLOUDY    45  41  86 E7        30.06F
LUDINGTON      RAIN      37  37  99 E12G17    30.07S WCI  30
MARSHALL       CLOUDY    42  41  95 E3        30.07F
MOUNT PLEASANT LGT SNOW  36  35  95 NE8       30.14F WCI  30
MUSKEGON       LGT RAIN  42  40  92 E13       30.04F
SOUTH HAVEN    LGT RAIN  46  45  96 E14G20    30.01F
$$
MIZ016>042-260600-
NORTHERN LOWER MICHIGAN

CITY           SKY/WX    TMP DP  RH WIND       PRES   REMARKS
ALPENA         CLOUDY    34  31  88 E13       30.26F WCI  25
BEAVER ISLAND  LGT SNOW  32  31  96 E14G21    30.19F WCI  22
BELLAIRE       FLURRIES  35  32  89 E3        30.16F
CADILLAC       FLURRIES  34  33  96 E16G24    30.10F WCI  24
CHARLEVOIX     FLURRIES  33  32  96 E12       30.19F WCI  24
FRANKFORT      RAIN      37  34  88 SE8       30.10F WCI  31
GAYLORD        FRZ RAIN  33  29  85 E8G17     30.17F WCI  26
HARBOR SPRINGS FLURRIES  32  31  96 E14       30.20F WCI  22
HOUGHTON LAKE  LGT RAIN  34  32  92 E14       30.16F WCI  25
MANISTEE       LGT RAIN  38  36  92 E9        30.08F WCI  31
OSCODA         MIX PCPN  36  33  92 NE13      30.23F WCI  27
PELLSTON       FRZ RAIN  32  28  85 E14       30.23F WCI  22
ROGERS CITY    MIX PCPN  33  28  80 E13         N/A  WCI  24
TRAVERSE CITY  LGT RAIN  37  33  85 E8        30.12F WCI  31
$$
MIZ007>008-015-260600-
EASTERN UPPER MICHIGAN

CITY           SKY/WX    TMP DP  RH WIND       PRES   REMARKS
KINROSS        FLURRIES  31  17  56 E18G24    30.25F WCI  19
MACKINAC ISLAN CLOUDY    32  25  76 E16G28    30.24F WCI  21
NEWBERRY       CLOUDY    32  20  61 E9        30.21F WCI  24
S. S. MARIE    LGT RAIN  34  13  41 E9        30.26F WCI  27
MUNISING         N/A     34  24  67 VRB7      30.19F WCI  28
$$
MIZ004>006-011>014-085-260600-
CENTRAL UPPER MICHIGAN

CITY           SKY/WX    TMP DP  RH WIND       PRES   REMARKS
ESCANABA       FLURRIES  32  31  96 E12       30.18F WCI  23
SAWYER-GWINN   FLURRIES  31  28  90 SE7       30.16F WCI  24
$$
MIZ001>003-009>011-084-260600-
WESTERN UPPER MICHIGAN

CITY           SKY/WX    TMP DP  RH WIND       PRES   REMARKS
IRON MOUNTAIN  MIX PCPN  32  29  88 E6        30.12F WCI  26
HOUGHTON       CLOUDY    33  28  81 SE14      30.13F WCI  23
COPPER HARBOR    N/A     35  23  61 S8        30.17F WCI  29
IRONWOOD       CLOUDY    32  30  92 E6        30.09F WCI  26
$$

ABBREVIATIONS USED IN REMARKS
   TC - TEMPERATURE IN CELSIUS
  WCI - WIND CHILL INDEX
   HX - HEAT INDEX
  VSB - VISIBILITY




USA.gov is the U.S. government's official web portal to all federal, state and local government web resources and services.